If you wish to contribute or participate in the discussions about articles you are invited to join SKYbrary as a registered user

 Actions

Adelaide International Airport

From SKYbrary Wiki

YPAD
Airport
ICAO: YPAD – IATA: ADL
Summary
Name Adelaide International Airport
Region Asia and Pacific
Territory Christmas Island CX.gif
Location , South Australia
Serving Adelaide
Elevation 6.096 m
20 ft
20 ft6.096 m
Type medium airport
Coordinates 34° 56' 42.00" S, 138° 31' 50.00" E
Runways
Designator Length Width Surface ROPS
5/23 3100 m10,170.604 ft
45 m147.638 ft
ASP yes/yes
12/30 1652 m5,419.948 ft
45 m147.638 ft
ASP yes/yes


METAR
Observation YPAD 290130Z 30015KT 9999 -RA FEW029 BKN090 BKN120 18/13 Q1009 FM0300 26020KT 9999 -SHRA SCT030 INTER 0230/0430 4000 SHRA SCT015
Station Adelaide Airport
Date/Time 29 October 2020 01:30:00
Wind direction 300°
Wind speed 15 kts
Lowest cloud amount few clouds
Temperature 18°C
Dew point 13°C
Humidity 72%
QNH 1009 hPa
Weather condition light rain